ABS-3A

Last updated on Sun Oct 19 2025 00:02:49 GMT+0000 (Coordinated Universal Time)

1 40424U 15010A 25291.26769596 -.00000033 00000+0 00000+0 0 9995 2 40424 0.0134 251.1554 0001755 262.2487 326.9884 1.00270681 38956
UTC large
Height (km)
Speed (km/s)
/
Latitude / Longitude
Inclination (degrees)
Orbital Period (minutes)
Azimuth
Elevation
Range (km)
Doppler Factor

Next 0 passes for location: London (51.5072 / 0.1276)

Sorry there are no passes over London.